OneWeb SL0245

operational
NORAD ID: 48778 Int'l Des: 2021-045 Owner: ONEWEBN Country: UK Constellation: oneweb
LEOCIRCULARPOLARONEWEB_TYPE

OneWeb SL0245について

説明を読み込み中...

リアルタイム位置

3D地球を読み込み中...

次回通過

高度履歴

Altitude vs Time

uPlot chart will show altitude changes over time

軌道要素

1 48778U 21045M 25258.57561204 -.00000110 00000-0 -32674-3 0 9997
2 48778 87.9026 313.9862 0001801 103.6984 256.4347 13.15551342208271
Epoch: Sep 15, 2025 • Age: 14 hours

現在のステータス

高度 1221.1 km
速度 7.24 km/s
衛星直下点 -47.73°S, 84.64°E
打ち上げ日 May 28, 2021
運用期間 4.3 years
タイプ internet

技術仕様

分類 Payload
質量 148.00 kg
乾燥質量 140.00 kg
総質量 148.00 kg
長さ 1.30 m
直径 1.00 m
スパン 5.00 m
形状 Trapezoid+2 pan
製造者 ONEWUS
バスタイプ ARROW
フェーズステータス In Orbit
所有者/国 ONEWEBN/UK

大規模コンステレーション

Loading constellations...